CZ-6A DEB, 60855

Orbit data source: Space-Track

CZ-6A DEB, 60855 is space debris in LEO originally from a launch on Tue, 06 Aug 2024 UTC launched from the Taiyaun Space Center, China (TSC). Debris objects in space refer to the collection of defunct objects orbiting the Earth. Examples of debris include non-operational satellites, rocket bodies, and fragments generated from explosions, collisions, or faulty payload assembly.

Loading next visibility...
Identifier
60855, 2024-140JJ
Orbit
LEO
Country
Flag of CNCN / PRC
Related business
Manufacturer
SAST
Mission
Spacecraft
Bus & Motor
Unknown
Mass
Unknown
Launch date (UTC)
2024-08-06 (2 years ago)
Launch vehicle
Unknown
Launch site
Taiyaun Space Center, China (TSC)
Object type
Payload
Rocket body
Debris
Shape & HBR
Unknown shape, 0.2 m
Radar Cross Section
Medium (>0.1 m² and <1 m²)

Expand to show TLE details & history
Last TLE update: 15 hours ago

TLE from 15 hours ago
0 CZ-6A DEB
1 60855U 24140JJ  26171.26858601  .00000679  00000-0  33925-3 0  9995
2 60855  89.0168 276.3748 0073102 188.0092 171.9935 14.14351693 95350
Epoch: 2026-06-20T06:26Z
TLE epoch observation values (Epoch: 2026-06-20T06:26:45.831Z)
Latitude
0.00005°
Longitude
-88.8018°
Altitude
899.866 km
Speed
7.375 km/s
True Right ascension
18h 25m 29s
True Declination
0° 00' 00"
Sunlit
Object was in full shadow at epoch
Visualization orbit readout
Latitude
Unknown
Longitude
Unknown
Altitude
Unknown
Speed
Unknown
Apparent Right ascension
Unknown
Apparent Declination
Unknown
Sunlit
N/A
Visualization observer readout
Local Sidereal Time
08:42:08
Azimuth
Unknown
Elevation
Unknown
Doppler factor
Unknown
Orbital elements
Apogee altitude
894.254 km
Perigee altitude
788.701 km
Semi-major axis
7,219.614 km
Eccentricity
0.00731
Inclination
89.0168°
RAAN
276.3748°
Arg. of periapsis
188.0092°
True anomaly
172.10913°
Mean anomaly
171.9935°
Eccentric anomaly
172.05142°
Mean motion
3.53812 °/min
Orbital period
101.75 mins
BSTAR
0.00033925
Loading maneuver chart data...
Computing Atmospheric mass density...
Loading historical data...
Loading historical data...
Loading historical data...
Loading historical data...
Loading historical data...
Loading historical data...
Loading historical data...

Documentation

Showing up to 5 results
|